Date,TemperatureHighF,TemperatureAvgF,TemperatureLowF,DewpointHighF,DewpointAvgF,DewpointLowF,HumidityHigh,HumidityAvg,HumidityLow,PressureMaxIn,PressureMinIn,WindSpeedMaxMPH,WindSpeedAvgMPH,GustSpeedMaxMPH,PrecipitationSumIn
2013-1-1,34.9,31.9,28.9,34.0,29.8,26.0,98,91,84,30.36,30.11,10,2,14,0.00
2013-1-2,42.5,31.6,23.7,29.0,25.9,21.0,92,80,56,30.39,30.29,5,1,9,0.00
2013-1-3,45.5,31.4,22.1,30.0,24.0,20.0,95,76,45,30.54,30.39,10,1,12,0.00
2013-1-4,46.4,35.9,24.9,32.0,27.5,22.0,92,73,51,30.58,30.39,8,1,10,0.00
2013-1-5,52.1,38.9,25.6,37.0,32.3,23.0,95,78,51,30.39,30.22,11,2,14,0.00
2013-1-6,54.4,37.4,24.2,28.0,23.1,17.0,94,60,30,30.47,30.35,9,2,12,0.00
2013-1-7,51.8,35.5,18.2,32.0,25.6,16.0,93,70,41,30.39,30.15,12,1,15,0.00
2013-1-8,49.7,43.2,33.3,46.0,38.8,29.0,97,85,68,30.18,30.04,6,1,10,0.10
2013-1-9,53.0,49.8,45.8,52.0,48.9,45.0,97,97,95,30.26,30.06,11,4,16,0.53
2013-1-10,55.6,52.2,46.9,54.0,50.7,45.0,98,94,88,30.06,29.86,7,3,14,0.16
2013-1-11,71.0,56.6,44.9,56.0,48.2,42.0,93,76,47,29.92,29.72,12,5,21,0.00
2013-1-12,59.9,42.9,29.6,56.0,34.4,22.0,92,74,41,30.05,29.75,15,7,22,0.86
2013-1-13,34.6,27.8,22.7,23.0,17.5,15.0,78,66,49,30.41,30.01,16,7,23,0.00
2013-1-14,40.8,29.0,22.3,18.0,15.2,13.0,74,58,36,30.48,30.31,13,4,14,0.00
2013-1-15,34.7,28.0,21.9,22.0,19.0,16.0,81,69,49,30.33,30.25,10,2,13,0.00
2013-1-16,48.1,31.7,15.4,23.0,17.7,12.0,89,60,30,30.33,30.21,6,1,12,0.00
2013-1-17,56.6,40.1,27.8,33.0,27.6,19.0,83,63,36,30.55,30.30,12,3,18,0.00
2013-1-18,59.9,41.6,21.7,34.0,29.2,20.0,95,66,36,30.56,30.27,11,3,17,0.00
2013-1-19,65.0,49.3,38.1,40.0,35.7,33.0,89,62,36,30.26,30.13,8,2,12,0.00
2013-1-20,67.6,45.7,26.7,47.0,36.6,25.0,97,74,38,30.25,30.10,7,1,13,0.00
2013-1-21,48.4,37.1,26.8,39.0,20.5,14.0,75,53,35,30.39,30.21,13,5,18,0.00
2013-1-22,60.2,41.7,20.7,44.0,29.9,17.0,88,65,38,30.35,30.22,7,1,10,0.00
2013-1-23,73.3,52.8,32.8,55.0,44.9,31.0,95,77,46,30.27,30.12,10,1,12,0.00
2013-1-24,58.6,47.1,40.2,51.0,43.6,35.0,97,88,64,30.20,30.09,6,1,11,0.00
2013-1-25,50.8,40.1,32.3,38.0,33.6,28.0,94,78,60,30.28,30.11,11,3,12,0.00
2013-1-26,47.1,41.2,30.7,45.0,39.6,29.0,97,94,87,30.27,30.11,6,1,11,0.01
2013-1-27,68.9,56.5,44.0,60.0,52.9,43.0,98,89,72,30.12,29.90,16,4,19,0.00
2013-1-28,75.4,68.3,63.0,65.0,62.6,59.0,94,82,68,29.98,29.76,13,6,20,0.00
2013-1-29,73.4,62.5,47.0,65.0,54.5,31.0,96,76,48,29.77,29.43,14,5,30,0.21
2013-1-30,47.6,40.7,29.8,42.0,27.3,19.0,85,61,37,30.14,29.64,15,4,22,0.00
2013-1-31,62.6,40.8,20.4,31.0,23.9,17.0,91,57,26,30.42,30.11,14,3,20,0.00
2013-2-1,54.1,36.1,20.9,31.0,21.4,9.0,84,57,37,30.46,30.19,10,2,17,0.00
2013-2-2,62.1,43.7,27.0,36.0,30.7,24.0,92,64,35,30.36,30.18,14,2,19,0.00
2013-2-3,62.9,47.8,28.6,38.0,30.9,25.0,91,57,32,30.36,29.98,6,2,13,0.00
2013-2-4,70.3,59.1,45.6,51.0,41.5,30.0,75,53,36,29.98,29.80,11,3,20,0.00
2013-2-5,59.1,51.7,43.0,56.0,49.7,35.0,97,93,67,30.05,29.91,5,1,5,0.00
2013-2-6,61.6,54.3,50.2,61.0,53.4,50.0,98,97,92,30.05,29.87,11,3,18,0.02
2013-2-7,71.8,57.4,44.3,59.0,51.9,39.0,98,84,44,30.16,29.82,18,5,25,0.02
2013-2-8,58.3,44.5,34.2,39.0,31.2,-99.9,85,64,33,30.32,30.16,9,-8,13,0.00
2013-2-9,52.0,43.9,36.6,51.0,40.4,32.0,97,87,77,30.17,29.73,11,4,23,0.03
2013-2-10,63.4,52.7,37.5,56.0,34.1,24.0,98,54,24,30.06,29.70,10,3,16,0.14
2013-2-11,58.4,46.6,37.2,33.0,28.3,26.0,75,51,32,30.23,30.07,11,3,13,0.00
2013-2-12,42.5,39.3,35.2,40.0,37.1,31.0,96,92,75,30.10,29.93,11,3,17,0.85
2013-2-13,57.0,42.3,32.6,39.0,32.2,26.0,94,72,34,30.17,30.03,6,1,11,0.00
2013-2-14,66.1,45.3,26.6,37.0,25.3,-99.9,100,56,21,30.22,30.03,16,-30,16,0.00
2013-2-15,48.9,39.1,26.4,37.0,21.2,-99.9,75,53,34,30.43,30.23,14,-16,20,0.00
2013-2-16,53.1,35.5,27.7,30.0,10.0,-99.9,93,51,35,30.46,30.16,12,-114,12,0.00
2013-2-17,72.6,48.4,30.0,40.0,13.9,-99.9,91,39,19,30.16,29.82,18,-131,25,0.00
2013-2-18,66.0,48.8,37.9,53.0,22.4,-99.9,82,49,34,30.16,29.70,15,-112,24,0.00
2013-2-19,57.1,38.6,28.9,31.0,8.5,-99.9,84,44,27,30.37,30.16,11,-135,11,0.00
2013-2-20,45.1,31.9,34.5,37.0,12.0,-99.9,95,71,48,30.24,29.88,14,-156,16,0.35
2013-2-21,54.4,34.4,30.2,43.0,11.4,-99.9,96,65,57,30.02,29.66,13,-174,18,0.02
2013-2-22,43.4,28.5,23.6,25.0,6.1,-99.9,82,56,46,30.22,30.02,16,-122,17,0.00
2013-2-23,49.8,31.1,22.5,31.0,9.3,-99.9,87,59,45,30.18,29.96,6,-124,8,0.00
2013-2-24,65.6,44.4,30.6,42.0,19.4,-99.9,91,53,40,29.97,29.68,14,-121,23,0.00
2013-2-25,49.5,34.7,35.2,42.0,14.9,-99.9,95,73,65,29.71,29.45,16,-163,19,0.11
2013-2-26,52.6,34.8,31.9,34.0,7.0,-99.9,87,53,41,29.95,29.67,12,-176,20,0.00
2013-2-27,51.8,35.2,31.9,30.0,10.7,-99.9,86,54,30,30.28,29.93,14,-123,21,0.00
2013-2-28,53.9,36.2,28.8,30.0,12.2,-99.9,87,53,35,30.32,30.23,18,-111,21,0.00
2013-3-1,48.1,31.7,23.6,32.0,9.9,-99.9,91,61,52,30.38,30.26,12,-124,16,0.00
2013-3-2,53.0,34.1,23.4,28.0,10.5,-99.9,90,54,38,30.48,30.26,7,-114,12,0.00
2013-3-3,69.9,47.1,26.2,37.0,15.8,-99.9,90,42,30,30.25,29.68,15,-120,23,0.00
2013-3-4,77.6,58.0,44.9,44.0,27.8,-99.9,80,40,28,29.90,29.58,26,-78,31,0.00
2013-3-5,52.2,38.1,30.0,38.0,7.4,-99.9,76,41,28,30.42,29.91,23,-119,35,0.00
2013-3-6,56.0,37.7,25.8,24.0,7.0,-99.9,81,40,23,30.51,30.23,7,-114,8,0.00
2013-3-7,69.6,49.5,32.5,33.0,13.9,-99.9,70,33,21,30.24,30.08,13,-102,22,0.00
2013-3-8,60.7,50.4,52.5,55.0,31.2,-99.9,89,65,42,30.15,29.94,18,-109,21,0.00
2013-3-9,65.6,48.0,53.9,62.0,27.5,-99.9,97,75,82,29.95,29.63,13,-184,20,0.46
2013-3-10,55.5,37.5,32.2,53.0,15.4,-99.9,97,61,57,30.12,29.68,9,-140,21,0.03
2013-3-11,58.7,36.4,28.2,29.0,10.4,-99.9,90,51,25,30.16,30.03,6,-115,12,0.00
2013-3-12,61.5,43.2,32.7,38.0,16.4,-99.9,78,48,32,30.37,30.06,8,-114,18,0.00
2013-3-13,64.5,42.9,30.9,35.0,16.8,-99.9,87,49,30,30.50,30.33,7,-106,17,0.00
2013-3-14,79.1,54.0,35.4,47.0,26.1,-99.9,87,47,28,30.35,30.14,10,-102,15,0.00
2013-3-15,83.5,59.9,53.6,51.0,28.1,-99.9,74,42,27,30.14,29.80,14,-120,20,0.00
2013-3-16,81.0,62.5,56.8,58.0,36.0,-99.9,79,49,40,29.80,29.65,11,-100,16,0.00
2013-3-17,59.5,45.4,41.7,54.0,27.5,-99.9,88,66,59,29.81,29.67,11,-103,15,0.00
2013-3-18,64.0,46.3,40.8,44.0,25.1,-99.9,93,59,35,30.05,29.66,13,-96,18,0.00
2013-3-19,61.1,45.8,34.7,40.0,20.6,-99.9,93,51,30,30.20,30.02,10,-94,15,0.00
2013-3-20,62.4,45.8,35.3,37.0,14.8,-99.9,82,41,26,30.36,30.06,9,-118,13,0.00
2013-3-21,65.5,46.0,43.8,48.0,22.3,-99.9,74,53,47,30.05,29.56,17,-112,25,0.06
2013-3-22,47.6,39.3,38.4,41.0,23.7,-99.9,90,73,72,29.91,29.62,14,-105,20,0.00
2013-3-23,46.2,38.1,39.8,45.0,22.7,-99.9,95,80,86,29.91,29.71,12,-134,17,0.13
2013-3-24,47.8,34.2,32.3,37.0,6.6,-99.9,91,49,32,30.25,29.91,21,-142,24,0.00
2013-3-25,47.4,33.4,24.5,23.0,7.0,-99.9,76,44,27,30.45,30.25,18,-79,22,0.00
2013-3-26,56.8,36.1,19.4,26.0,9.1,-99.9,84,44,25,30.55,30.32,7,-84,11,0.00
2013-3-27,68.8,49.5,34.9,41.0,20.1,-99.9,65,40,32,30.32,30.07,17,-89,27,0.00
2013-3-28,70.3,54.5,49.2,55.0,34.0,-99.9,83,61,57,30.19,30.05,13,-102,24,0.00
2013-3-29,74.2,58.6,55.5,59.0,39.7,-99.9,92,66,56,30.13,29.96,20,-106,32,0.09
2013-3-30,78.7,60.9,55.0,63.0,42.3,-99.9,95,66,56,30.02,29.84,17,-103,30,0.01
2013-3-31,71.2,56.0,48.5,61.0,35.8,-99.9,96,62,40,30.00,29.80,18,-94,34,0.40
2013-4-1,77.7,57.0,42.7,51.0,32.6,-99.9,92,52,30,30.10,29.97,11,-82,13,0.00
2013-4-2,56.0,40.4,40.6,49.0,24.6,-99.9,95,78,68,30.10,29.99,12,-126,17,0.52
2013-4-3,42.0,30.2,38.3,40.0,4.0,-99.9,100,69,82,30.23,30.06,12,-244,16,0.55
2013-4-4,51.5,34.6,38.3,42.0,9.8,-99.9,100,66,69,30.26,30.17,10,-210,12,0.02
2013-4-5,67.1,48.4,33.5,48.0,32.4,-99.9,97,67,47,30.28,30.00,10,-67,13,0.00
2013-4-6,76.9,59.6,55.0,57.0,40.3,-99.9,81,60,43,30.01,29.80,14,-68,20,0.00
2013-4-7,70.2,59.5,55.7,62.0,47.0,-99.9,94,77,73,29.86,29.68,12,-72,25,0.00
2013-4-8,78.7,63.9,63.1,65.0,48.0,-99.9,87,70,60,29.70,29.61,16,-81,23,0.00
2013-4-9,79.3,62.0,45.1,66.0,42.5,-99.9,85,66,63,29.78,29.59,21,-113,26,0.00
2013-4-10,44.3,33.8,32.0,39.0,19.7,-99.9,93,77,72,30.04,29.76,17,-100,26,0.37
2013-4-11,58.2,40.4,32.4,36.0,21.0,-99.9,92,60,42,30.05,29.85,9,-83,12,0.00
2013-4-12,69.6,48.8,34.4,45.0,29.5,-99.9,96,60,37,30.06,29.87,15,-69,15,0.00
2013-4-13,76.3,59.7,48.4,51.0,35.1,-99.9,75,49,33,30.01,29.75,16,-68,19,0.00
2013-4-14,81.5,64.7,56.5,64.0,46.1,-99.9,84,60,51,29.76,29.49,14,-60,24,0.00
2013-4-15,87.2,71.4,59.6,69.0,54.5,-99.9,97,66,52,29.71,29.54,17,-62,18,0.00
2013-4-16,82.3,67.5,66.4,68.0,53.2,-99.9,89,72,61,29.88,29.71,6,-73,16,0.00
2013-4-17,80.7,69.6,70.6,70.0,54.9,-99.9,92,71,63,29.84,29.52,20,-69,32,0.00
2013-4-18,75.7,40.8,35.3,69.0,16.3,-99.9,93,61,53,30.18,29.54,18,-151,26,0.10
2013-4-19,63.3,45.0,32.8,34.0,21.0,-99.9,88,49,28,30.30,30.14,9,-61,17,0.00
2013-4-20,69.9,54.5,34.7,38.0,27.9,-99.9,90,44,24,30.18,30.01,25,-37,25,0.00
2013-4-21,69.4,56.1,47.6,50.0,35.4,-99.9,74,54,48,30.20,30.07,13,-60,22,0.00
2013-4-22,76.9,60.8,46.4,59.0,43.1,-99.9,90,62,51,30.11,29.79,19,-58,23,0.00
2013-4-23,65.6,41.0,37.1,58.0,25.4,-99.9,93,75,75,30.25,29.78,16,-112,20,0.00
2013-4-24,59.9,41.5,32.1,33.0,18.8,-99.9,85,53,31,30.38,30.25,10,-81,20,0.00
2013-4-25,71.1,51.0,28.7,45.0,28.3,-99.9,95,53,24,30.39,30.16,11,-51,15,0.00
2013-4-26,72.1,57.8,55.6,64.0,40.5,-99.9,89,67,54,30.21,29.94,13,-91,20,0.01
2013-4-27,69.6,58.1,50.6,64.0,45.5,-99.9,94,74,59,30.13,29.94,15,-59,17,0.00
2013-4-28,84.5,62.6,44.3,62.0,45.6,-99.9,97,66,34,30.05,29.84,8,-51,12,0.00
2013-4-29,87.7,70.2,53.6,64.0,50.9,-99.9,98,60,30,29.87,29.74,12,-38,22,0.00
2013-4-30,84.1,68.4,57.5,62.0,49.7,-99.9,93,61,44,29.80,29.71,11,-59,20,0.00
2013-5-1,83.9,67.2,53.7,67.0,55.2,-99.9,93,74,49,30.06,29.76,11,-39,20,0.00
2013-5-2,53.0,40.7,38.5,47.0,29.3,-99.9,91,76,73,30.41,30.07,21,-54,26,0.03
2013-5-3,63.8,45.9,30.3,36.0,25.2,-99.9,92,56,24,30.41,30.06,20,-39,25,0.00
2013-5-4,65.9,48.8,31.8,40.0,26.2,-99.9,92,52,18,30.09,29.95,18,-37,24,0.00
2013-5-5,65.4,51.5,44.3,48.0,36.9,-99.9,92,65,51,30.19,30.08,12,-37,16,0.00
2013-5-6,76.4,57.1,40.1,53.0,42.2,-99.9,97,67,42,30.15,30.01,8,-40,14,0.00
2013-5-7,83.5,65.7,49.4,55.0,45.4,-99.9,94,57,30,30.09,29.91,7,-41,13,0.00
2013-5-8,86.5,69.1,58.0,64.0,47.1,-99.9,88,55,25,29.96,29.81,12,-48,23,0.20
2013-5-9,75.9,64.0,61.3,67.0,51.6,-99.9,93,75,61,29.96,29.84,11,-61,15,0.00
2013-5-10,76.0,64.2,59.2,63.0,52.8,-99.9,100,75,53,30.08,29.91,12,-39,14,0.00
2013-5-11,81.1,61.8,48.0,60.0,46.5,-99.9,97,68,34,30.22,30.08,14,-39,20,0.09
2013-5-12,78.7,60.0,43.3,49.0,33.5,-99.9,93,48,20,30.27,30.12,6,-51,14,0.01
2013-5-13,92.2,71.4,51.9,53.0,39.9,-99.9,76,37,20,30.18,30.02,9,-39,18,0.00
2013-5-14,89.3,73.1,62.8,59.0,43.9,-99.9,67,41,26,30.09,29.91,11,-58,18,0.00
2013-5-15,76.1,65.2,58.7,68.0,54.7,-99.9,97,79,55,29.96,29.73,10,-47,19,1.12
2013-5-16,67.8,56.3,60.2,66.0,41.0,-99.9,98,82,92,29.83,29.73,6,-124,14,0.27
2013-5-17,86.0,66.9,63.8,76.0,55.3,-99.9,99,82,70,29.86,29.76,8,-82,12,0.00
2013-5-18,89.5,77.7,70.5,75.0,66.5,-99.9,97,75,57,29.85,29.67,23,-27,23,0.00
2013-5-19,87.5,77.2,71.4,73.0,62.7,-99.9,81,67,60,29.76,29.54,18,-35,28,0.00
2013-5-20,88.3,73.9,63.1,74.0,64.3,-99.9,94,76,61,29.74,29.59,17,-16,25,1.77
2013-5-21,68.0,30.2,56.7,64.0,-24.3,-99.9,98,42,84,29.88,29.71,9,-531,30,0.85
2013-5-22,84.1,67.7,47.7,64.0,48.6,-99.9,100,62,41,29.96,29.85,7,-71,12,0.01
2013-5-23,84.7,65.5,58.0,70.0,50.3,-99.9,97,72,54,30.09,29.90,18,-82,33,0.37
2013-5-24,81.9,68.7,62.3,74.0,59.1,-99.9,95,81,72,30.14,30.04,9,-50,15,0.28
2013-5-25,80.1,65.1,63.8,72.0,57.3,-99.9,97,86,72,30.17,29.99,16,-51,17,0.73
2013-5-26,84.1,71.7,65.4,73.0,61.3,-99.9,97,79,68,30.06,29.88,14,-48,20,0.00
2013-5-27,82.2,72.9,70.2,72.0,64.0,-99.9,91,79,69,29.93,29.73,15,-26,25,0.00
2013-5-28,80.3,72.7,70.8,70.0,59.4,-99.9,87,71,66,29.83,29.65,25,-46,25,0.00
2013-5-29,78.8,70.5,62.9,72.0,61.6,-99.9,97,81,76,29.79,29.63,18,-36,33,0.68
2013-5-30,86.5,77.7,68.6,75.0,71.1,66.0,94,81,66,29.74,29.60,13,6,23,0.01
2013-5-31,88.9,77.2,74.2,77.0,64.1,-99.9,88,72,66,29.76,29.56,13,-47,24,0.00
2013-6-1,81.8,64.4,60.4,73.0,42.7,-99.9,97,64,44,29.99,29.61,14,-132,18,0.06
2013-6-2,76.5,66.1,55.4,61.0,55.9,51.0,97,73,47,30.11,29.96,12,3,16,0.00
2013-6-3,83.8,67.7,54.7,66.0,54.2,-99.9,97,71,55,30.02,29.82,7,-40,13,0.00
2013-6-4,86.8,66.8,64.9,74.0,46.7,-99.9,97,67,62,30.03,29.78,12,-126,18,0.02
2013-6-5,85.5,69.9,67.2,74.0,57.5,-99.9,97,77,64,29.99,29.79,11,-70,18,0.39
2013-6-6,75.1,63.8,59.0,69.0,51.3,-99.9,98,79,67,29.96,29.85,10,-82,14,1.33
2013-6-7,82.3,64.6,54.4,64.0,49.4,-99.9,100,70,45,30.02,29.90,9,-57,10,0.00
2013-6-8,83.5,79.0,65.4,65.0,63.5,59.0,80,60,50,29.93,29.77,11,3,15,0.00
2013-6-9,89.8,73.6,64.1,74.0,63.2,-99.9,96,75,49,29.93,29.80,7,-20,19,0.23
2013-6-10,93.6,77.5,67.3,76.0,60.8,-99.9,90,65,48,29.94,29.84,8,-51,15,0.00
2013-6-11,92.6,77.4,70.9,75.0,59.8,-99.9,85,63,53,29.97,29.87,11,-59,18,0.00
2013-6-12,92.3,82.6,72.8,75.0,71.7,68.0,85,71,53,29.99,29.89,10,3,17,0.00
2013-6-13,96.5,83.8,69.2,79.0,73.1,67.0,93,72,49,30.01,29.86,8,1,10,0.00
2013-6-14,94.9,79.1,68.7,79.0,65.7,-99.9,97,72,51,29.96,29.86,5,-41,9,0.00
2013-6-15,88.4,76.5,72.8,77.0,64.7,-99.9,94,75,64,29.97,29.86,9,-51,14,0.00
2013-6-16,94.9,78.7,68.0,79.0,63.4,-99.9,95,68,52,29.98,29.83,11,-51,13,0.00
2013-6-17,86.7,70.2,65.3,74.0,55.4,-99.9,100,73,62,29.97,29.83,21,-82,22,0.93
2013-6-18,86.7,72.6,66.7,71.0,61.4,-99.9,100,76,52,30.00,29.91,10,-40,12,0.00
2013-6-19,85.0,72.0,65.3,75.0,62.1,-99.9,98,81,70,30.00,29.86,9,-52,15,0.00
2013-6-20,91.4,80.0,73.4,77.0,67.0,-99.9,93,71,54,29.99,29.89,8,-28,17,0.00
2013-6-21,91.8,80.2,74.6,77.0,65.8,-99.9,85,67,53,30.00,29.90,9,-29,16,0.00
2013-6-22,91.4,79.0,73.6,72.0,61.1,-99.9,84,62,50,29.98,29.83,10,-48,18,0.00
2013-6-23,91.6,82.9,74.2,73.0,70.2,68.0,85,67,50,29.93,29.83,12,4,21,0.00
2013-6-24,91.5,83.4,74.8,73.0,70.5,68.0,81,66,52,29.98,29.84,9,4,19,0.00
2013-6-25,93.2,84.0,76.2,76.0,70.9,67.0,79,65,53,29.91,29.76,13,5,19,0.00
2013-6-26,94.7,84.6,75.2,77.0,71.8,65.0,86,66,55,29.89,29.77,11,4,14,0.00
2013-6-27,100.6,85.1,70.7,81.0,73.7,66.0,96,71,45,29.98,29.80,11,2,18,0.00
2013-6-28,95.6,82.0,71.6,74.0,63.8,-99.9,84,59,40,29.97,29.83,12,-29,15,0.00
2013-6-29,91.2,76.4,67.0,69.0,58.4,-99.9,91,62,38,29.93,29.81,8,-40,15,0.00
2013-6-30,85.3,73.1,61.8,65.0,52.7,-99.9,87,55,40,29.97,29.84,14,-39,19,0.00
2013-7-1,83.5,70.1,58.4,63.0,56.9,53.0,89,66,37,30.07,29.97,14,3,18,0.00
2013-7-2,85.6,68.3,53.8,63.0,48.7,-99.9,91,59,33,30.11,30.00,6,-41,13,0.00
2013-7-3,90.0,70.2,55.2,62.0,47.9,-99.9,94,55,31,30.08,29.93,5,-55,8,0.00
2013-7-4,92.2,74.1,57.9,67.0,53.9,-99.9,93,58,31,30.00,29.88,8,-40,10,0.00
2013-7-5,92.4,77.2,66.7,69.0,57.9,-99.9,91,58,39,29.96,29.83,9,-41,13,0.05
2013-7-6,94.1,78.9,69.7,71.0,60.9,-99.9,77,58,41,29.92,29.83,8,-24,17,0.00
2013-7-7,94.3,78.3,72.4,73.0,57.3,-99.9,80,57,43,29.98,29.91,7,-60,12,0.00
2013-7-8,95.5,77.4,69.6,75.0,61.8,-99.9,92,68,46,30.05,29.95,9,-50,15,0.00
2013-7-9,98.2,83.3,73.5,73.0,62.2,-99.9,77,55,40,30.05,29.91,10,-39,14,0.00
2013-7-10,101.4,83.6,72.8,73.0,60.3,-99.9,77,52,35,30.00,29.86,7,-51,15,0.00
2013-7-11,103.9,82.2,71.4,73.0,59.1,-99.9,89,55,31,29.93,29.81,10,-57,15,0.00
2013-7-12,98.1,84.9,70.9,75.0,71.0,68.0,94,66,41,29.95,29.86,11,2,12,0.00
2013-7-13,98.7,83.4,72.4,71.0,64.0,-99.9,89,58,39,29.98,29.85,7,-29,14,0.00
2013-7-14,81.3,62.3,62.4,69.0,47.0,-99.9,97,77,56,30.02,29.88,7,-114,15,0.46
2013-7-15,73.6,63.9,61.5,69.0,59.4,-99.9,98,93,84,30.12,30.00,5,-35,9,0.87
2013-7-16,87.5,71.0,68.6,76.0,60.5,-99.9,99,81,62,30.20,30.10,7,-61,12,0.15
2013-7-17,87.1,71.1,69.5,78.0,60.5,-99.9,98,82,60,30.24,30.14,6,-67,14,0.45
2013-7-18,93.4,77.8,68.0,78.0,65.0,-99.9,98,73,50,30.19,29.99,5,-41,8,0.00
2013-7-19,94.8,80.9,69.9,76.0,71.8,69.0,97,76,46,30.03,29.89,9,1,16,0.00
2013-7-20,95.3,81.2,68.8,74.0,71.3,68.0,97,74,45,29.96,29.81,7,1,13,0.00
2013-7-21,95.3,79.3,72.9,76.0,61.9,-99.9,92,65,48,29.88,29.79,7,-60,10,0.00
2013-7-22,96.4,80.3,74.6,78.0,63.3,-99.9,92,66,51,29.90,29.79,9,-61,14,0.00
2013-7-23,97.5,82.4,76.9,79.0,65.1,-99.9,83,63,50,29.91,29.75,10,-54,12,0.00
2013-7-24,90.6,68.4,66.0,75.0,45.6,-99.9,98,64,51,30.06,29.79,13,-149,29,0.02
2013-7-25,86.4,76.0,69.5,75.0,66.4,-99.9,100,79,65,30.06,29.95,4,-31,10,0.00
2013-7-26,87.2,68.6,70.9,78.0,52.4,-99.9,100,75,70,30.00,29.88,12,-116,18,0.30
2013-7-27,86.4,73.1,68.5,72.0,62.2,-99.9,96,77,58,30.04,29.92,7,-40,11,0.00
2013-7-28,87.5,74.2,66.7,72.0,61.5,-99.9,97,73,56,29.98,29.87,7,-44,13,0.00
2013-7-29,89.3,77.1,73.7,78.0,65.5,-99.9,92,75,65,29.97,29.86,11,-45,17,0.05
2013-7-30,94.9,79.4,75.3,79.0,63.2,-99.9,91,67,55,30.00,29.89,13,-60,16,0.00
2013-7-31,94.3,79.4,71.8,79.0,67.7,-99.9,97,76,58,30.02,29.93,7,-43,14,0.00
2013-8-1,94.7,79.6,72.7,78.0,65.4,-99.9,95,71,50,30.02,29.89,5,-51,9,0.00
2013-8-2,101.4,84.2,76.8,77.0,63.7,-99.9,87,58,37,29.92,29.79,9,-50,12,0.00
2013-8-3,98.1,82.9,76.1,75.0,61.3,-99.9,76,55,44,29.98,29.84,7,-53,12,0.00
2013-8-4,98.8,81.7,70.7,75.0,62.5,-99.9,92,60,41,30.02,29.88,7,-50,12,0.00
2013-8-5,102.5,84.9,74.9,76.0,64.4,-99.9,82,56,36,29.93,29.77,7,-38,15,0.00
2013-8-6,103.4,83.3,74.8,74.0,54.5,-99.9,71,46,32,29.84,29.71,8,-82,16,0.00
2013-8-7,104.0,86.4,79.3,77.0,64.2,-99.9,74,53,36,29.81,29.69,5,-40,11,0.00
2013-8-8,98.8,79.4,73.1,76.0,58.9,-99.9,95,61,41,29.86,29.73,9,-75,23,0.07
2013-8-9,97.3,77.9,75.2,76.0,60.4,-99.9,89,66,46,29.98,29.80,12,-71,15,0.00
2013-8-10,88.9,75.1,69.1,73.0,60.9,-99.9,93,71,52,30.09,29.98,10,-49,14,0.00
2013-8-11,97.2,76.7,64.9,73.0,56.9,-99.9,96,62,40,30.07,29.94,10,-72,12,0.00
2013-8-12,100.0,77.8,73.0,74.0,57.2,-99.9,90,61,37,30.01,29.87,12,-82,17,0.18
2013-8-13,87.7,72.4,73.1,75.0,57.9,-99.9,96,75,59,30.02,29.89,10,-82,13,0.08
2013-8-14,87.7,72.7,68.2,73.0,58.6,-99.9,96,72,55,30.06,29.95,8,-62,12,0.00
2013-8-15,86.8,70.2,66.3,69.0,53.8,-99.9,91,67,55,30.07,29.92,8,-70,11,0.00
2013-8-16,84.8,67.1,63.8,69.0,51.4,-99.9,96,71,53,30.08,29.95,21,-82,33,0.12
2013-8-17,85.8,68.9,59.7,65.0,51.1,-99.9,100,65,48,30.12,30.00,6,-72,12,0.00
2013-8-18,88.6,71.5,61.1,67.0,53.3,-99.9,92,63,42,30.11,29.99,8,-62,15,0.00
2013-8-19,92.8,73.8,65.4,69.0,54.2,-99.9,92,61,38,30.07,29.93,10,-62,15,0.00
2013-8-20,96.1,74.6,64.7,67.0,49.6,-99.9,92,53,33,30.02,29.92,8,-82,12,0.00
2013-8-21,97.3,75.0,63.7,69.0,49.1,-99.9,94,52,29,30.06,29.96,8,-83,14,0.00
2013-8-22,99.5,83.3,67.2,71.0,65.4,-99.9,90,59,34,30.06,29.90,8,-10,13,0.00
2013-8-23,97.7,79.8,70.7,72.0,60.7,-99.9,89,60,39,30.00,29.90,12,-51,17,0.00
2013-8-24,98.9,80.0,72.1,74.0,60.3,-99.9,89,60,36,30.05,29.96,6,-51,11,0.00
2013-8-25,97.4,75.8,72.3,72.0,50.8,-99.9,87,54,39,30.13,30.03,10,-102,15,0.00
2013-8-26,95.2,75.1,68.9,71.0,52.9,-99.9,93,58,37,30.16,30.03,11,-81,15,0.00
2013-8-27,89.7,70.2,65.4,72.0,49.5,-99.9,90,63,53,30.09,29.98,9,-109,15,0.00
2013-8-28,97.3,77.3,66.1,71.0,56.6,-99.9,92,59,37,30.07,29.96,10,-64,13,0.00
2013-8-29,101.1,80.2,66.2,70.0,55.4,-99.9,89,52,31,30.05,29.91,6,-62,11,0.00
2013-8-30,104.6,80.5,68.0,70.0,51.6,-99.9,91,48,26,29.98,29.82,6,-82,10,0.00
2013-8-31,106.5,82.1,69.0,69.0,48.5,-99.9,86,41,23,29.87,29.73,7,-95,13,0.00
2013-9-1,106.1,78.4,69.6,75.0,50.9,-99.9,85,51,25,29.86,29.75,9,-103,19,0.10
2013-9-2,94.7,74.1,72.2,76.0,51.2,-99.9,96,60,45,29.97,29.84,10,-112,14,0.03
2013-9-3,94.2,71.5,62.9,66.0,46.4,-99.9,94,54,29,30.02,29.91,8,-91,17,0.00
2013-9-4,97.7,74.5,64.9,71.0,49.8,-99.9,85,54,35,30.06,29.96,7,-94,10,0.00
2013-9-5,98.5,77.4,68.5,70.0,52.6,-99.9,82,52,30,30.10,29.98,7,-72,11,0.00
2013-9-6,100.1,75.8,67.6,68.0,46.7,-99.9,82,47,28,30.07,29.92,6,-104,9,0.00
2013-9-7,99.2,75.6,68.6,78.0,48.6,-99.9,84,51,33,29.99,29.87,8,-104,17,0.01
2013-9-8,98.6,76.8,65.3,70.0,47.2,-99.9,94,48,29,29.96,29.84,8,-92,14,0.00
2013-9-9,95.0,76.0,70.3,70.0,46.8,-99.9,82,46,31,29.97,29.87,8,-91,17,0.00
2013-9-10,94.0,74.9,68.0,70.0,47.9,-99.9,89,49,30,30.07,29.93,11,-93,16,0.00
2013-9-11,96.2,72.4,63.3,69.0,44.8,-99.9,83,50,36,30.12,29.98,10,-113,14,0.00
2013-9-12,96.9,74.2,68.3,71.0,51.5,-99.9,89,57,39,30.06,29.93,15,-92,19,0.00
2013-9-13,95.0,74.5,69.8,71.0,54.8,-99.9,92,62,41,29.98,29.85,13,-81,19,0.00
2013-9-14,90.8,72.8,68.8,69.0,49.1,-99.9,85,54,40,29.98,29.88,8,-82,16,0.00
2013-9-15,97.3,73.5,68.6,72.0,47.5,-99.9,69,51,38,30.01,29.92,9,-104,15,0.00
2013-9-16,94.0,75.2,69.7,69.0,48.5,-99.9,85,50,38,30.09,29.96,7,-102,17,0.00
2013-9-17,96.1,71.8,67.8,74.0,48.2,-99.9,91,59,35,30.05,29.92,12,-113,15,0.07
2013-9-18,95.6,73.6,71.0,72.0,45.9,-99.9,94,52,37,29.98,29.84,12,-125,19,0.00
2013-9-19,93.5,75.2,73.1,72.0,52.1,-99.9,88,56,42,29.95,29.84,10,-92,17,0.01
2013-9-20,73.7,59.8,62.9,70.0,43.3,-99.9,96,77,79,29.98,29.88,11,-134,14,0.10
2013-9-21,82.3,56.6,52.7,57.0,26.8,-99.9,95,51,25,30.03,29.89,9,-153,14,0.00
2013-9-22,85.0,60.9,48.6,56.0,33.6,-99.9,97,51,27,29.96,29.80,8,-107,11,0.00
2013-9-23,84.8,60.8,56.5,56.0,33.3,-99.9,90,50,34,29.86,29.73,9,-126,16,0.00
2013-9-24,90.7,64.2,54.7,59.0,31.2,-99.9,94,44,20,29.96,29.84,11,-114,17,0.00
2013-9-25,94.6,66.2,50.2,57.0,32.2,-99.9,88,41,22,29.91,29.75,6,-115,11,0.00
2013-9-26,95.4,70.6,59.5,62.0,38.3,-99.9,75,42,31,29.85,29.76,14,-116,20,0.00
2013-9-27,89.6,70.3,65.9,70.0,46.3,-99.9,82,56,49,29.90,29.79,13,-112,24,0.00
2013-9-28,78.6,59.4,58.8,74.0,40.7,-99.9,97,72,70,30.08,29.81,12,-136,17,1.03
2013-9-29,79.4,56.7,51.7,56.0,32.3,-99.9,97,58,34,30.09,29.93,8,-123,12,0.00
2013-9-30,86.2,59.7,48.1,60.0,31.5,-99.9,98,52,31,29.95,29.80,9,-136,11,0.00
2013-10-1,88.9,65.2,54.5,68.0,44.1,-99.9,97,62,40,29.92,29.84,12,-103,17,0.00
2013-10-2,87.4,68.2,68.7,72.0,48.1,-99.9,95,66,55,29.95,29.82,8,-122,17,0.00
2013-10-3,90.5,70.7,72.0,73.0,47.8,-99.9,89,60,51,29.88,29.74,13,-123,21,0.00
2013-10-4,87.9,71.4,72.5,71.0,51.0,-99.9,88,63,53,29.86,29.77,12,-100,20,0.00
2013-10-5,77.0,50.6,44.5,68.0,26.9,-99.9,87,59,40,30.13,29.81,17,-143,21,0.03
2013-10-6,70.9,48.9,40.2,41.0,36.3,30.0,92,67,22,30.11,30.06,4,0,7,0.00
2013-10-7,80.4,51.8,41.4,45.0,17.0,-99.9,88,42,18,30.20,30.09,7,-145,9,0.00
2013-10-8,80.5,54.6,42.7,52.0,24.3,-99.9,94,48,27,30.13,29.99,9,-146,13,0.00
2013-10-9,82.6,57.3,46.9,56.0,28.2,-99.9,97,51,35,30.07,29.96,9,-154,14,0.00
2013-10-10,82.6,74.9,59.8,64.0,59.2,55.0,89,59,44,30.04,29.84,12,5,20,0.00
2013-10-11,87.0,66.2,64.2,69.0,44.9,-99.9,91,63,51,29.87,29.77,10,-122,20,0.00
2013-10-12,83.7,66.9,65.1,71.0,47.4,-99.9,97,66,51,30.08,29.84,10,-112,13,0.00
2013-10-13,74.4,57.2,59.4,69.0,37.6,-99.9,100,74,81,30.21,30.08,5,-166,9,0.00
2013-10-14,70.3,51.3,65.4,70.0,25.0,-99.9,98,71,84,30.15,29.89,8,-250,14,1.02
2013-10-15,70.7,43.3,52.0,70.0,16.3,-99.9,98,68,81,30.12,29.88,13,-250,18,0.33
2013-10-16,62.6,44.8,44.1,53.0,19.4,-99.9,98,60,51,30.18,30.06,10,-173,14,0.01
2013-10-17,58.8,32.0,38.4,47.0,0.7,-99.9,98,63,64,30.15,30.09,3,-288,8,0.00
2013-10-21,49.5,42.9,38.8,42.0,39.4,37.0,93,87,75,30.17,30.11,0,0,0,0.00
2013-10-22,76.1,56.0,36.7,49.0,44.2,35.0,97,69,37,30.19,30.03,8,1,13,0.00
2013-10-23,79.4,52.0,42.6,52.0,23.0,-99.9,97,52,33,30.15,30.01,6,-167,13,0.00
2013-10-24,67.4,47.9,47.8,47.0,20.4,-99.9,84,52,41,30.34,30.03,10,-156,15,0.00
2013-10-25,63.7,45.3,41.9,44.0,19.7,-99.9,80,54,48,30.45,30.27,6,-146,16,0.00
2013-10-26,62.5,47.8,49.4,59.0,30.6,-99.9,98,76,77,30.26,30.07,4,-145,9,0.86
2013-10-27,67.1,48.5,52.8,59.0,29.0,-99.9,98,76,75,30.15,30.01,5,-174,8,0.01
2013-10-28,68.2,58.8,46.5,65.0,57.4,46.0,98,95,86,30.11,30.01,7,1,11,0.01
2013-10-29,76.1,70.5,66.5,70.0,67.0,64.0,94,88,80,30.05,29.93,12,5,17,0.01
2013-10-30,71.0,68.1,64.3,69.0,66.5,64.0,98,94,88,29.97,29.76,13,5,19,0.11
2013-10-31,68.3,62.4,50.9,66.0,52.6,43.0,98,73,43,29.86,29.63,10,3,19,0.02
2013-11-1,74.3,55.8,39.9,52.0,43.3,39.0,98,68,35,30.13,29.84,10,2,18,0.00
2013-11-2,64.3,49.7,39.0,41.0,36.1,32.0,86,64,30,30.35,30.13,12,2,16,0.00
2013-11-3,64.2,50.2,32.7,45.0,38.4,31.0,96,67,43,30.24,29.99,15,3,20,0.00
2013-11-4,63.8,57.4,53.2,57.0,52.1,45.0,96,83,68,30.08,29.98,11,4,19,0.17
2013-11-5,65.7,61.6,57.7,65.0,61.0,57.0,98,97,96,30.06,29.93,10,3,15,0.67
2013-11-6,66.0,46.3,33.1,66.0,40.4,32.0,98,82,52,30.42,29.94,14,6,20,0.23
2013-11-7,63.7,46.1,30.8,43.0,36.0,30.0,98,72,39,30.54,30.41,4,0,8,0.00
2013-11-8,65.4,51.8,34.5,43.0,37.7,33.0,96,63,32,30.40,30.13,11,3,20,0.00
2013-11-9,69.0,58.1,47.2,53.0,47.7,42.0,83,69,52,30.25,30.10,11,2,17,0.00
2013-11-10,65.2,55.8,44.8,53.0,48.8,43.0,94,78,63,30.37,30.25,3,0,7,0.00
2013-11-11,72.6,58.4,42.9,58.0,52.3,42.0,96,82,58,30.37,30.18,17,2,17,0.00
2013-11-12,51.4,37.7,22.1,48.0,24.7,16.0,89,63,31,30.76,30.37,22,8,26,0.00
2013-11-13,52.2,33.9,16.8,26.0,22.0,15.0,93,66,34,30.76,30.40,9,1,11,0.00
2013-11-14,51.4,43.0,29.5,39.0,29.5,24.0,82,61,46,30.40,30.02,14,3,16,0.00
2013-11-15,68.1,55.8,43.0,54.0,47.0,39.0,95,74,49,30.02,29.81,10,2,13,0.00
2013-11-16,75.8,66.5,56.8,64.0,59.8,55.0,92,80,59,29.82,29.59,14,6,23,0.05
2013-11-17,78.9,67.8,54.6,65.0,49.7,26.0,90,57,26,30.06,29.63,12,4,19,0.00
2013-11-18,69.1,56.7,47.2,38.0,30.4,22.0,59,38,24,30.24,30.06,10,2,14,0.00
2013-11-19,63.0,55.9,51.2,40.0,34.6,30.0,64,46,30,30.20,30.01,10,3,21,0.00
2013-11-20,61.4,55.0,47.8,54.0,40.7,32.0,79,59,48,30.01,29.87,10,4,18,0.00
2013-11-21,67.2,54.9,33.3,65.0,52.4,31.0,97,91,80,30.32,29.93,23,6,28,0.12
2013-11-22,33.0,30.6,29.0,31.0,28.0,26.0,94,90,85,30.57,30.33,18,8,24,0.00
2013-11-23,36.9,32.9,30.1,31.0,28.0,23.0,94,83,62,30.66,30.55,12,3,18,0.23
2013-11-24,30.5,28.6,26.9,25.0,21.1,16.0,86,74,61,30.69,30.39,11,3,16,0.00
2013-11-25,33.5,31.3,28.2,32.0,29.3,25.0,95,92,87,30.41,30.25,5,1,7,0.01
2013-11-26,48.0,38.7,32.1,34.0,29.4,22.0,94,71,45,30.45,30.24,15,6,22,0.01
2013-11-27,42.2,30.4,21.6,21.0,14.5,11.0,80,54,31,30.53,30.39,13,2,15,0.00
2013-11-28,55.4,37.1,20.2,29.0,23.0,16.0,86,60,32,30.49,30.38,5,1,10,0.00
2013-11-29,58.7,39.6,21.7,36.0,29.1,20.0,96,70,35,30.53,30.36,8,2,15,0.00
2013-11-30,65.6,51.7,40.7,50.0,44.8,35.0,92,78,56,30.36,30.14,14,3,14,0.00
2013-12-1,62.4,51.3,41.3,53.0,47.6,40.0,97,88,71,30.14,29.92,7,1,10,0.00
2013-12-2,65.5,45.8,36.3,54.0,42.5,35.0,98,90,51,29.92,29.70,3,0,5,0.01
2013-12-3,68.5,51.1,42.2,53.0,44.4,39.0,98,82,37,29.70,29.52,8,1,11,0.01
2013-12-4,53.5,43.9,33.3,43.0,36.3,24.0,98,76,56,30.02,29.55,19,5,20,0.00
2013-12-5,32.8,25.9,20.6,24.0,18.5,16.0,89,74,59,30.30,30.03,19,9,25,0.00
2013-12-6,24.7,20.3,16.3,18.0,15.0,6.0,91,80,64,30.63,30.27,15,7,20,0.00
2013-12-7,21.5,16.9,10.7,15.0,8.7,3.0,77,70,65,30.70,30.34,10,4,16,0.00
2013-12-8,36.3,25.5,19.7,26.0,20.8,15.0,94,83,65,30.35,30.08,7,1,9,0.01
2013-12-9,30.4,24.0,17.2,23.0,18.7,13.0,93,80,65,30.51,30.25,11,3,14,0.00
2013-12-10,39.5,23.1,7.9,19.0,13.9,6.0,91,70,42,30.58,30.37,6,1,12,0.01
2013-12-11,42.3,27.7,15.3,27.0,20.4,13.0,93,76,51,30.68,30.36,11,2,16,0.02
2013-12-12,45.4,30.8,16.2,30.0,24.1,14.0,93,78,56,30.69,30.33,7,1,12,0.00
2013-12-13,45.5,39.6,35.8,42.0,36.6,31.0,96,89,76,30.31,29.81,11,3,17,0.26
2013-12-14,41.3,35.4,25.1,41.0,30.7,22.0,97,84,64,30.36,29.85,17,5,24,0.00
2013-12-15,59.1,39.4,22.7,34.0,27.6,21.0,93,67,35,30.38,30.23,8,1,10,0.00
2013-12-16,66.7,42.1,23.6,37.0,30.2,22.0,95,68,31,30.25,30.15,6,1,8,0.00
2013-12-17,71.4,45.9,26.5,40.0,31.4,25.0,96,64,24,30.33,30.21,8,1,10,0.00
2013-12-18,70.0,49.4,27.5,47.0,36.2,24.0,91,64,30,30.30,29.96,13,3,19,0.00
2013-12-19,68.8,59.6,52.6,56.0,52.8,47.0,89,79,62,29.96,29.70,16,5,23,0.00
2013-12-20,60.1,39.5,29.4,57.0,36.9,27.0,96,90,81,29.94,29.72,14,4,18,0.04
2013-12-21,35.6,33.2,30.7,35.0,32.5,30.0,97,96,95,29.87,29.63,5,1,10,0.10
2013-12-22,35.0,29.2,18.3,32.0,25.0,16.0,97,84,70,30.47,29.87,13,4,18,0.00
2013-12-23,39.2,24.2,13.7,29.0,21.0,12.0,95,88,62,30.66,30.45,8,1,11,0.00
2013-12-24,47.9,32.9,19.7,34.0,26.9,18.0,94,80,58,30.65,30.27,10,2,18,0.00
2013-12-25,41.0,31.5,22.5,35.0,28.7,21.0,96,89,77,30.49,30.30,10,2,14,0.00
2013-12-26,54.2,34.4,20.7,39.0,27.5,20.0,97,79,41,30.51,30.38,4,0,10,0.01
2013-12-27,58.3,38.5,20.8,33.0,26.6,19.0,96,67,32,30.49,30.37,5,1,10,0.00
2013-12-28,59.9,44.1,26.0,45.0,35.2,24.0,93,73,54,30.36,29.98,8,2,13,0.00
2013-12-29,46.4,31.5,25.4,40.0,25.7,16.0,95,79,65,30.37,29.97,20,6,23,0.00
2013-12-30,41.4,25.7,13.3,19.0,14.0,10.0,87,63,39,30.47,30.33,6,1,8,0.00
2013-12-31,55.2,34.8,15.9,28.0,22.4,13.0,90,64,34,30.49,30.22,12,2,15,0.00
2014-1-1,65.9,43.1,23.9,41.0,30.8,16.0,89,65,37,30.32,29.88,13,3,23,0.00
2014-1-2,39.0,25.2,16.7,19.0,15.1,11.0,81,67,44,30.55,30.32,14,4,20,0.00